GW1347 Weather Reports


Display with metric or nautical units.
time (UTC)temp
F
wind
direction
speed
MPH
gust
MPH
rain 1hr
in
rain 24hr
in
rain mn
in
humidity
%
barometer
mb
20260902132726 83 238 1.0 4.0 0.00 0.00 0.00 75 1019.0
20260902130657 82 159 1.0 3.0 0.00 0.00 0.00 77 1019.0
20260902125631 81 148 1.0 3.0 0.00 0.00 0.00 78 1019.0
20260902124559 81 180 0.0 0.0 0.00 0.00 0.00 78 1019.0
20260902123602 80 128 0.0 0.0 0.00 0.00 0.00 80 1018.9
20260902122614 79 84 0.0 0.0 0.00 0.00 0.00 82 1019.0
20260902121541 78 129 0.0 3.0 0.00 0.00 0.00 83 1018.9
20260902120512 78 72 0.0 1.0 0.00 0.00 0.00 84 1018.7
20260902115527 76 108 0.0 0.0 0.00 0.00 0.00 86 1018.7
20260902114534 75 108 0.0 0.0 0.00 0.00 0.00 88 1018.7
20260902113544 75 108 0.0 0.0 0.00 0.00 0.00 89 1018.6
20260902112524 74 108 0.0 0.0 0.00 0.00 0.00 89 1018.5
20260902111500 74 108 0.0 0.0 0.00 0.00 0.00 89 1018.4
20260902110447 74 108 0.0 0.0 0.00 0.00 0.00 89 1018.3
20260902105436 75 108 0.0 0.0 0.00 0.00 0.00 88 1018.2
20260902104404 75 131 0.0 1.0 0.00 0.00 0.00 88 1018.0
20260902103416 75 132 0.0 0.0 0.00 0.00 0.00 87 1018.1
20260902102411 75 132 0.0 0.0 0.00 0.00 0.00 88 1018.0
20260902101340 75 132 0.0 0.0 0.00 0.00 0.00 88 1018.0
20260902100332 75 126 0.0 2.0 0.00 0.00 0.00 88 1017.9
20260902094200 76 129 0.0 0.0 0.00 0.00 0.00 87 1017.9
20260902092043 77 129 0.0 0.0 0.00 0.00 0.00 85 1017.9
20260902091028 77 184 0.0 2.0 0.00 0.00 0.00 86 1017.7
20260902090041 77 278 0.0 2.0 0.00 0.00 0.00 85 1017.6
20260902081707 77 179 1.0 3.0 0.00 0.00 0.00 85 1017.3
20260902080727 77 221 1.0 3.0 0.00 0.00 0.00 84 1017.3
20260902075736 77 223 1.0 3.0 0.00 0.00 0.00 84 1017.2
20260902074734 78 215 0.0 2.0 0.00 0.00 0.00 84 1017.4
20260902073721 78 212 0.0 2.0 0.00 0.00 0.00 84 1017.4
20260902072649 78 229 0.0 2.0 0.00 0.00 0.00 83 1017.4
20260902071642 78 227 0.0 1.0 0.00 0.00 0.00 84 1017.3
20260902070621 78 216 0.0 0.0 0.00 0.00 0.00 85 1017.3
20260902065548 78 216 0.0 0.0 0.00 0.00 0.00 87 1017.4
20260902064555 78 216 0.0 0.0 0.00 0.00 0.00 86 1017.4
20260902063613 78 216 0.0 0.0 0.00 0.00 0.00 86 1017.4
20260902061521 78 216 0.0 0.0 0.00 0.00 0.00 85 1017.2
20260902055419 79 216 0.0 0.0 0.00 0.00 0.00 84 1017.1
20260902053301 79 231 0.0 0.0 0.00 0.00 0.00 82 1017.1
20260902052249 80 250 0.0 2.0 0.00 0.00 0.00 81 1017.0
20260902051236 80 229 0.0 0.0 0.00 0.00 0.00 80 1017.0
20260902045104 81 175 0.0 0.0 0.00 0.00 0.00 80 1017.0
20260902044031 81 175 0.0 1.0 0.00 0.00 0.00 80 1017.0
20260902043046 81 240 1.0 3.0 0.00 0.00 0.00 79 1017.0
20260902042057 81 238 1.0 3.0 0.00 0.00 0.00 79 1017.1
20260902041039 81 239 1.0 2.0 0.00 0.00 0.00 79 1017.2
20260902040039 82 240 0.0 1.0 0.00 0.00 0.00 79 1017.3
20260902035041 82 230 0.0 0.0 0.00 0.00 0.00 79 1017.1
20260902032938 82 232 1.0 3.0 0.00 0.00 0.00 77 1017.2
20260902031950 83 263 1.0 3.0 0.00 0.00 0.00 76 1017.2
20260902030945 83 212 1.0 3.0 0.00 0.00 0.00 75 1017.3
20260902030003 83 231 1.0 3.0 0.00 0.00 0.00 75 1017.4
20260902023912 84 232 1.0 4.0 0.00 0.00 0.00 74 1017.4
20260902022935 84 217 1.0 3.0 0.00 0.00 0.00 73 1017.4
20260902021945 85 236 1.0 3.0 0.00 0.00 0.00 73 1017.4
20260902020939 85 255 1.0 3.0 0.00 0.00 0.00 73 1017.3
20260902015919 85 221 2.0 3.0 0.00 0.00 0.00 72 1017.1
20260902014918 85 243 1.0 4.0 0.00 0.00 0.00 71 1017.1
20260902013939 86 241 2.0 4.0 0.00 0.00 0.00 70 1017.1
20260902012933 86 243 3.0 6.0 0.00 0.00 0.00 69 1017.0
20260902011950 87 224 3.0 6.0 0.00 0.00 0.00 68 1016.9
20260902010917 87 240 3.0 5.0 0.00 0.00 0.00 68 1016.8
20260902004838 88 226 2.0 4.0 0.00 0.00 0.00 67 1016.7
20260902002810 89 233 1.0 3.0 0.00 0.00 0.00 64 1016.7
20260902001815 91 198 1.0 4.0 0.00 0.00 0.00 62 1016.6
20260902000808 91 253 2.0 4.0 0.00 0.00 0.00 61 1016.7
20260901235812 92 257 2.0 6.0 0.00 0.00 0.00 59 1016.7
20260901234754 93 332 2.0 6.0 0.00 0.00 0.00 57 1016.7
20260901233814 94 151 2.0 5.0 0.00 0.00 0.00 56 1016.7
20260901232816 94 231 2.0 8.0 0.00 0.00 0.00 56 1016.8
20260901231841 93 256 3.0 8.0 0.00 0.00 0.00 56 1016.8
20260901230845 94 199 3.0 6.0 0.00 0.00 0.00 56 1016.8
20260901225812 94 223 3.0 6.0 0.00 0.00 0.00 56 1016.7
20260901224814 94 246 3.0 6.0 0.00 0.00 0.00 54 1016.6
20260901223758 94 245 4.0 8.0 0.00 0.00 0.00 55 1016.6
20260901222750 94 240 4.0 8.0 0.00 0.00 0.00 54 1016.7
20260901221804 95 233 3.0 9.0 0.00 0.00 0.00 54 1016.6
20260901220825 95 236 4.0 9.0 0.00 0.00 0.00 53 1016.7
20260901215813 95 236 4.0 8.0 0.00 0.00 0.00 53 1016.6
20260901213643 97 248 2.0 9.0 0.00 0.00 0.00 51 1016.6
20260901210317 95 200 6.0 11.0 0.00 0.00 0.00 52 1016.8
20260901205325 96 254 4.0 11.0 0.00 0.00 0.00 52 1016.9
20260901204304 95 163 6.0 11.0 0.00 0.00 0.00 52 1017.0
20260901203254 96 233 4.0 13.0 0.00 0.00 0.00 50 1016.9
20260901202224 96 219 6.0 13.0 0.00 0.00 0.00 52 1016.9
20260901201230 96 229 5.0 12.0 0.00 0.00 0.00 51 1016.9
20260901200200 96 212 4.0 11.0 0.00 0.00 0.00 50 1016.9
20260901195200 96 235 3.0 11.0 0.00 0.00 0.00 50 1017.0
20260901194207 96 297 3.0 15.0 0.00 0.00 0.00 50 1017.1
20260901192027 96 245 4.0 15.0 0.00 0.00 0.00 52 1017.5
20260901191029 95 219 5.0 10.0 0.00 0.00 0.00 52 1017.5
20260901190023 95 234 6.0 13.0 0.00 0.00 0.00 51 1017.7
20260901185023 94 224 7.0 13.0 0.00 0.00 0.00 52 1017.8
20260901183949 94 203 6.0 11.0 0.00 0.00 0.00 53 1017.9
20260901182950 94 236 6.0 12.0 0.00 0.00 0.00 54 1018.0
20260901181941 94 254 6.0 15.0 0.00 0.00 0.00 54 1018.0
20260901175825 94 182 4.0 9.0 0.00 0.00 0.00 55 1018.1
20260901174838 93 239 6.0 10.0 0.00 0.00 0.00 56 1018.2
20260901173806 93 235 4.0 12.0 0.00 0.00 0.00 59 1018.4
20260901172743 92 240 6.0 12.0 0.00 0.00 0.00 58 1018.4
20260901171757 93 284 4.0 9.0 0.00 0.00 0.00 58 1018.4
20260901170812 93 205 4.0 11.0 0.00 0.00 0.00 59 1018.4
20260901165834 92 248 5.0 11.0 0.00 0.00 0.00 59 1018.4
20260901164811 92 205 5.0 10.0 0.00 0.00 0.00 58 1018.6
20260901163819 91 219 4.0 10.0 0.00 0.00 0.00 59 1018.7
20260901162754 92 229 3.0 6.0 0.00 0.00 0.00 59 1018.8
20260901161748 91 295 3.0 9.0 0.00 0.00 0.00 60 1018.8
20260901155553 90 212 3.0 11.0 0.00 0.00 0.00 62 1019.0
20260901154601 89 238 4.0 11.0 0.00 0.00 0.00 62 1019.1
20260901153623 89 237 3.0 11.0 0.00 0.00 0.00 63 1019.1
20260901152635 88 244 3.0 12.0 0.00 0.00 0.00 65 1019.1
20260901151620 87 274 5.0 12.0 0.00 0.00 0.00 66 1018.9
20260901150624 86 236 6.0 9.0 0.00 0.00 0.00 68 1018.9
20260901145642 87 245 4.0 11.0 0.00 0.00 0.00 69 1018.9
20260901144613 85 244 6.0 11.0 0.00 0.00 0.00 71 1018.9
20260901143549 85 234 4.0 9.0 0.00 0.00 0.00 72 1018.9
20260901142613 84 143 4.0 9.0 0.00 0.00 0.00 73 1018.9
20260901141549 83 226 4.0 9.0 0.00 0.00 0.00 74 1019.0
20260901140541 83 229 3.0 8.0 0.00 0.00 0.00 74 1019.0
20260901135603 83 262 3.0 6.0 0.00 0.00 0.00 76 1019.0
20260901134615 82 245 2.0 6.0 0.00 0.00 0.00 76 1019.3
20260901133638 81 164 0.0 3.0 0.00 0.00 0.00 78 1019.5